Lafayette, LA

4:34 AM CDT on April 29, 2017 (GMT -0500)
Lafayette Regional

Weather History for KLFT - July, 2012

Change the Weather History Date:

Sunday, July 15, 2012

  Actual Average Record
Temperature  
Mean Temperature 81 °F 84 °F  
Max Temperature 88 °F 92 °F 100 °F (1924)
Min Temperature 74 °F 75 °F 61 °F (1967)
Cooling Degree Days 16 18  
Month to date cooling degree days 250 270  
Year to date cooling degree days 1598 1382  
Since 1 June cooling degree days 752 768  
Growing Degree Days 32 (Base 50)    
Moisture  
Dew Point 74 °F    
Average Humidity 77    
Maximum Humidity 94    
Minimum Humidity 59    
Precipitation  
Precipitation 1.19 in 0.20 in 2.10 in (1922)
Month to date precipitation 5.24 3.41  
Year to date precipitation 37.71 33.11  
Sea Level Pressure  
Sea Level Pressure 30.03 in    
Wind  
Wind Speed 0 mph (East)    
Max Wind Speed 16 mph    
Max Gust Speed 23 mph    
Visibility 8 miles    
Events Rain , Thunderstorm    
T = Trace of Precipitation, MM = Missing Value Source: NWS Daily Summary

Daily Weather History Graph

Daily Weather History Graph

Search for Another Location

Airport or City:

Trip Planner

Search our weather history database for the weather conditions in past years. The results will help you decide how hot, cold, wet, or windy it might be!

Date:

Astronomy

Jul. 15, 2012 Rise Set
Actual Time 6:16 AM CDT 8:10 PM CDT
Civil Twilight 5:49 AM CDT 8:37 PM CDT
Nautical Twilight 5:17 AM CDT 9:10 PM CDT
Astronomical Twilight 4:42 AM CDT 9:44 PM CDT
Moon 3:13 AM CDT (7/15) 5:27 PM CDT (7/15)
Length of Visible Light 14h 47m
Length of Day
13h 53m
Waning Crescent, 11% of the Moon is Illuminated
Jul 15
Waning Crescent
Jul 18
New
Jul 26
First Quarter
Aug 1
Full
Aug 9
Last Quarter

Hourly Weather History & Observations

Time (CDT) Temp. Heat Index Dew Point Humidity Pressure Visibility Wind Dir Wind Speed Gust Speed Precip Events Conditions
12:53 AM 77.0 °F - 73.9 °F 90% 30.00 in 10.0 mi Calm Calm - N/A   Scattered Clouds
1:53 AM 77.0 °F - 73.9 °F 90% 29.99 in 10.0 mi Calm Calm - N/A   Clear
2:53 AM 75.9 °F - 73.9 °F 94% 29.99 in 10.0 mi Calm Calm - N/A   Partly Cloudy
3:53 AM 75.0 °F - 73.0 °F 94% 29.98 in 10.0 mi Calm Calm - N/A   Clear
4:53 AM 75.0 °F - 73.0 °F 94% 29.99 in 10.0 mi Calm Calm - N/A   Clear
5:53 AM 75.0 °F - 73.0 °F 94% 30.00 in 10.0 mi Calm Calm - N/A   Clear
6:53 AM 75.0 °F - 73.0 °F 94% 30.03 in 10.0 mi Calm Calm - N/A   Clear
7:53 AM 75.9 °F - 73.9 °F 94% 30.05 in 10.0 mi Calm Calm - 0.01 in   Clear
8:53 AM 77.0 °F - 75.0 °F 94% 30.07 in 6.0 mi Calm Calm - N/A   Haze
9:53 AM 82.0 °F 88.6 °F 75.0 °F 79% 30.06 in 10.0 mi Calm Calm - N/A   Clear
10:53 AM 84.9 °F 91.4 °F 73.0 °F 67% 30.06 in 10.0 mi Calm Calm - N/A   Clear
11:53 AM 88.0 °F 94.7 °F 72.0 °F 59% 30.06 in 10.0 mi Calm Calm - N/A   Partly Cloudy
12:53 PM 86.0 °F 93.0 °F 73.0 °F 65% 30.04 in 10.0 mi Calm Calm - N/A   Mostly Cloudy
1:12 PM 77.0 °F - 73.4 °F 89% 30.05 in 2.0 mi SSE 13.8 mph 23.0 mph 0.26 in Rain Heavy Rain
1:18 PM 77.0 °F - 73.4 °F 89% 30.06 in 1.0 mi South 9.2 mph 19.6 mph 0.54 in Rain Heavy Rain
1:31 PM 75.2 °F - 71.6 °F 89% 30.05 in 1.0 mi Variable 3.5 mph - 1.04 in Rain Heavy Rain
1:42 PM 75.2 °F - 71.6 °F 89% 30.05 in 2.5 mi NE 6.9 mph - 1.16 in Rain , Thunderstorm Heavy Thunderstorms and Rain
1:49 PM 75.2 °F - 71.6 °F 89% 30.05 in 4.0 mi East 4.6 mph - 1.18 in Rain , Thunderstorm Heavy Thunderstorms and Rain
1:53 PM 75.2 °F - 71.6 °F 89% 30.05 in 2.5 mi Variable 4.6 mph - N/A Rain , Thunderstorm Light Rain
2:08 PM 75.2 °F - 71.6 °F 89% 30.04 in 10.0 mi ENE 5.8 mph - 0.00 in Rain Light Rain
2:53 PM 78.1 °F - 73.0 °F 84% 30.04 in 10.0 mi WNW 3.5 mph - 0.00 in   Partly Cloudy
3:53 PM 80.1 °F 84.5 °F 73.9 °F 81% 30.02 in 10.0 mi Calm Calm - N/A   Clear
4:53 PM 82.0 °F 87.9 °F 73.9 °F 76% 30.01 in 10.0 mi Calm Calm - N/A   Clear
5:53 PM 84.0 °F 91.9 °F 75.0 °F 74% 29.99 in 10.0 mi Calm Calm - N/A   Clear
6:53 PM 84.0 °F 91.9 °F 75.0 °F 74% 29.99 in 10.0 mi Calm Calm - N/A   Clear
7:53 PM 82.4 °F 89.5 °F 75.2 °F 79% 30.01 in 10.0 mi Calm Calm - N/A   Clear
8:53 PM 80.1 °F 85.4 °F 75.9 °F 87% 30.02 in 10.0 mi Calm Calm - N/A   Clear
9:53 PM 79.0 °F - 75.0 °F 88% 30.04 in 10.0 mi Calm Calm - N/A   Partly Cloudy
10:53 PM 78.1 °F - 75.0 °F 90% 30.04 in 10.0 mi Calm Calm - N/A   Clear
11:53 PM 78.1 °F - 75.0 °F 90% 30.04 in 10.0 mi Calm Calm - N/A   Clear